Location: Malanoce
(44.2500°N, 7.4667°E)
Time: 05:38:50
(UTC+00:00)

Cosmos 540 Rocket - Pass Details

Date: 17 November 2025
Orbit: 735 x 747 km, 74.1° (Epoch: 09 December)

Event Time Altitude Azimuth Distance (km) Brightness Sun altitude
Rises 17:23:22 0° 338° (NNW) 3,198 6.8 -14.7°
Reaches altitude 10° 17:25:44 10° 338° (NNW) 2,268 6.1 -15.1°
Maximum altitude 17:30:53 84° 251° (WSW) 753 3.5 -16.0°
Drops below altitude 10° 17:35:58 10° 164° (SSE) 2,244 5.9 -16.9°
Sets 17:38:18 0° 163° (SSE) 3,161 6.6 -17.3°
